Pompano Beach, FL

12:52 AM EDT on October 01, 2016 (GMT -0400)
Pompano Beach

Weather History for KPMP - March, 2014

Change the Weather History Date:

Sunday, March 2, 2014

  Actual Average Record
Temperature  
Mean Temperature 75 °F -  
Max Temperature 80 °F 79 °F 90 °F (2003)
Min Temperature 70 °F 58 °F 34 °F (1968)
Cooling Degree Days 10    
Growing Degree Days 25 (Base 50)    
Moisture  
Dew Point 59 °F    
Average Humidity 59    
Maximum Humidity 71    
Minimum Humidity 48    
Precipitation  
Precipitation 0.01 in - - ()
Sea Level Pressure  
Sea Level Pressure 30.14 in    
Wind  
Wind Speed 9 mph (East)    
Max Wind Speed 13 mph    
Max Gust Speed 16 mph    
Visibility 10 miles    
Events      
Averages and records for this station are not official NWS values.
T = Trace of Precipitation, MM = Missing Value Source: NWS Daily Summary

Daily Weather History Graph

Daily Weather History Graph

Search for Another Location

Airport or City:

Trip Planner

Search our weather history database for the weather conditions in past years. The results will help you decide how hot, cold, wet, or windy it might be!

Date:

Astronomy

Mar. 02, 2014 Rise Set
Actual Time 6:42 AM EST 6:22 PM EST
Civil Twilight 6:19 AM EST 6:45 PM EST
Nautical Twilight 5:53 AM EST 7:12 PM EST
Astronomical Twilight 5:26 AM EST 7:39 PM EST
Moon 7:24 AM EST (3/2) 8:01 PM EST (3/2)
Length of Visible Light 12h 25m
Length of Day
11h 39m
Waxing Crescent, 3% of the Moon is Illuminated
Mar 2
Waxing Crescent
Mar 8
First Quarter
Mar 16
Full
Mar 23
Last Quarter
Mar 30
New

Hourly Weather History & Observations

Time (EST) Temp. Heat Index Dew Point Humidity Pressure Visibility Wind Dir Wind Speed Gust Speed Precip Events Conditions
12:53 AM 71.1 °F - 57.9 °F 63% 30.15 in 10.0 mi ENE 8.1 mph - N/A   Clear
1:53 AM 71.1 °F - 57.9 °F 63% 30.14 in 10.0 mi ENE 9.2 mph - N/A   Clear
2:53 AM 71.1 °F - 57.9 °F 63% 30.12 in 10.0 mi NE 8.1 mph - N/A   Clear
3:53 AM 71.1 °F - 57.9 °F 63% 30.12 in 10.0 mi NE 8.1 mph - N/A   Partly Cloudy
4:53 AM 70.0 °F - 57.0 °F 63% 30.13 in 10.0 mi ENE 6.9 mph - N/A   Partly Cloudy
5:53 AM 71.1 °F - 57.9 °F 63% 30.14 in 10.0 mi ENE 5.8 mph - N/A   Partly Cloudy
6:53 AM 70.0 °F - 57.0 °F 63% 30.15 in 10.0 mi East 5.8 mph - N/A   Partly Cloudy
7:53 AM 73.9 °F - 59.0 °F 59% 30.17 in 10.0 mi East 10.4 mph - N/A   Scattered Clouds
8:53 AM 75.9 °F - 57.9 °F 54% 30.18 in 10.0 mi East 11.5 mph - N/A   Scattered Clouds
9:53 AM 77.0 °F - 59.0 °F 54% 30.20 in 10.0 mi East 12.7 mph - N/A   Partly Cloudy
10:53 AM 78.1 °F - 61.0 °F 56% 30.20 in 10.0 mi East 10.4 mph - N/A   Clear
11:53 AM 79.0 °F - 61.0 °F 54% 30.19 in 10.0 mi East 10.4 mph - N/A   Clear
12:53 PM 79.0 °F - 61.0 °F 54% 30.16 in 10.0 mi East 10.4 mph 16.1 mph N/A   Partly Cloudy
1:53 PM 79.0 °F - 59.0 °F 50% 30.13 in 10.0 mi East 9.2 mph - N/A   Scattered Clouds
2:53 PM 80.1 °F 80.7 °F 59.0 °F 48% 30.10 in 10.0 mi East 12.7 mph - N/A   Scattered Clouds
3:53 PM 79.0 °F - 60.1 °F 52% 30.10 in 10.0 mi SE 10.4 mph - N/A   Clear
4:53 PM 78.1 °F - 59.0 °F 52% 30.10 in 10.0 mi SE 10.4 mph - N/A   Clear
5:53 PM 75.9 °F - 57.9 °F 54% 30.11 in 10.0 mi ESE 6.9 mph - N/A   Clear
6:53 PM 75.0 °F - 59.0 °F 57% 30.11 in 10.0 mi ESE 4.6 mph - N/A   Partly Cloudy
7:53 PM 73.9 °F - 62.1 °F 66% 30.11 in 10.0 mi ESE 8.1 mph - N/A   Clear
8:53 PM 73.0 °F - 60.1 °F 64% 30.12 in 10.0 mi SE 4.6 mph - N/A   Clear
9:53 PM 73.9 °F - 61.0 °F 64% 30.11 in 10.0 mi ESE 6.9 mph - N/A   Partly Cloudy
10:53 PM 73.0 °F - 63.0 °F 71% 30.11 in 10.0 mi ESE 6.9 mph - 0.01 in   Overcast
11:53 PM 73.9 °F - 61.0 °F 64% 30.09 in 10.0 mi ESE 10.4 mph - N/A   Overcast